Norfolk, NE

11:08 PM CDT on March 25, 2017 (GMT -0500)
Stefan Memorial

Weather History for KOFK - July, 2012

Change the Weather History Date:

Monday, July 30, 2012

  Actual Average Record
Temperature  
Mean Temperature 85 °F 75 °F  
Max Temperature 101 °F 86 °F 104 °F (1935)
Min Temperature 69 °F 64 °F 42 °F (1971)
Degree Days  
Heating Degree Days 0 0  
Month to date heating degree days 0 0  
Since 1 June heating degree days 16 30  
Since 1 July heating degree days 0 0  
Cooling Degree Days 20 10  
Month to date cooling degree days 529 298  
Year to date cooling degree days 962 545  
Since 1 June cooling degree days 810 484  
Growing Degree Days 34 (Base 50)    
Moisture  
Dew Point 61 °F    
Average Humidity 56    
Maximum Humidity 90    
Minimum Humidity 21    
Precipitation  
Precipitation 0.00 in 0.10 in 2.44 in (1958)
Month to date precipitation T 3.22  
Year to date precipitation 10.85 17.18  
Snow  
Snow 0.00 in 0.00 in - ()
Month to date snowfall 0.0 0.0  
Since 1 July snowfall 0.0 0.0  
Snow Depth 0.00 in    
Sea Level Pressure  
Sea Level Pressure 29.91 in    
Wind  
Wind Speed 5 mph (SW)    
Max Wind Speed 16 mph    
Max Gust Speed 18 mph    
Visibility 10 miles    
Events      
T = Trace of Precipitation, MM = Missing Value Source: NWS Daily Summary

Daily Weather History Graph

Daily Weather History Graph

Search for Another Location

Airport or City:

Trip Planner

Search our weather history database for the weather conditions in past years. The results will help you decide how hot, cold, wet, or windy it might be!

Date:

Astronomy

Jul. 30, 2012 Rise Set
Actual Time 6:21 AM CDT 8:49 PM CDT
Civil Twilight 5:50 AM CDT 9:21 PM CDT
Nautical Twilight 5:10 AM CDT 10:00 PM CDT
Astronomical Twilight 4:26 AM CDT 10:44 PM CDT
Moon 6:53 PM CDT (7/30) 3:37 AM CDT (7/30)
Length of Visible Light 15h 31m
Length of Day
14h 28m
Waxing Gibbous, 92% of the Moon is Illuminated
Jul 30
Waxing Gibbous
Aug 1
Full
Aug 9
Last Quarter
Aug 17
New
Aug 24
First Quarter

Hourly Weather History & Observations

Time (CDT) Temp. Heat Index Dew Point Humidity Pressure Visibility Wind Dir Wind Speed Gust Speed Precip Events Conditions
12:56 AM 72.0 °F - 64.0 °F 76% 29.90 in 10.0 mi SSE 3.5 mph - N/A   Clear
1:56 AM 73.0 °F - 66.0 °F 79% 29.90 in 10.0 mi Calm Calm - N/A   Clear
2:56 AM 72.0 °F - 64.9 °F 78% 29.92 in 10.0 mi Calm Calm - N/A   Clear
3:56 AM 73.9 °F - 66.9 °F 79% 29.94 in 10.0 mi SSW 13.8 mph - N/A   Clear
4:56 AM 72.0 °F - 66.9 °F 84% 29.91 in 10.0 mi SE 3.5 mph - N/A   Clear
5:56 AM 70.0 °F - 64.9 °F 84% 29.93 in 10.0 mi Calm Calm - N/A   Clear
6:56 AM 70.0 °F - 66.0 °F 87% 29.93 in 8.0 mi Calm Calm - N/A   Clear
7:56 AM 73.0 °F - 66.9 °F 81% 29.94 in 8.0 mi Calm Calm - N/A   Clear
9:56 AM 84.9 °F 85.9 °F 63.0 °F 48% 29.93 in 10.0 mi Variable 5.8 mph - N/A   Clear
10:56 AM 90.0 °F 90.3 °F 62.1 °F 39% 29.92 in 10.0 mi NNW 5.8 mph - N/A   Clear
11:56 AM 93.0 °F 92.3 °F 59.0 °F 32% 29.92 in 10.0 mi SW 6.9 mph - N/A   Clear
12:56 PM 95.0 °F 94.8 °F 60.1 °F 31% 29.91 in 10.0 mi SW 8.1 mph - N/A   Clear
1:56 PM 95.0 °F 94.8 °F 60.1 °F 31% 29.91 in 10.0 mi WSW 8.1 mph - N/A   Clear
2:56 PM 98.1 °F 97.2 °F 57.9 °F 26% 29.89 in 10.0 mi Variable 4.6 mph - N/A   Clear
3:56 PM 98.1 °F 96.4 °F 55.0 °F 24% 29.88 in 10.0 mi SW 10.4 mph - N/A   Clear
4:56 PM 99.0 °F 96.5 °F 53.1 °F 21% 29.88 in 10.0 mi Variable 4.6 mph - N/A   Clear
5:56 PM 98.1 °F - 52.0 °F 21% 29.87 in 10.0 mi WNW 4.6 mph - N/A   Clear
6:56 PM 98.1 °F - 51.1 °F 20% 29.86 in 10.0 mi SW 5.8 mph - N/A   Clear
7:56 PM 93.0 °F 91.1 °F 55.0 °F 28% 29.87 in 10.0 mi SSW 9.2 mph - N/A   Clear
8:56 PM 84.9 °F 84.2 °F 57.9 °F 40% 29.88 in 10.0 mi SSW 9.2 mph - N/A   Clear
9:56 PM 82.0 °F 83.0 °F 62.1 °F 51% 29.90 in 10.0 mi SSW 9.2 mph - N/A   Clear
10:56 PM 82.9 °F 83.7 °F 62.1 °F 49% 29.93 in 10.0 mi Calm Calm - N/A   Clear
11:56 PM 78.1 °F - 63.0 °F 60% 29.92 in 10.0 mi SSW 3.5 mph - N/A   Clear